COSMOS 2251 DEB, 37132

Orbit data source: Space-Track

COSMOS 2251 DEB, 37132 is space debris in LEO originally from a launch on Wed, 16 Jun 1993 UTC launched from the Plesetsk Missile And Space Complex (PKMTR). The debris from Iridium 33, an American commercial communications satellite, has been tracked extensively since its accidental collision with the defunct Russian satellite Cosmos 2251 in 2009. This event, occurring at high speed in low Earth orbit (LEO), generated thousands of pieces of space debris, significantly increasing the risk of further collisions. The Iridium 33 debris cloud has impacted space traffic management and orbital debris mitigation strategies, making it a subject of ongoing study in space situational awareness.

Loading next visibility...
Identifier
37132, 1993-036BHE
Orbit
LEO
Country
Flag of CISCIS
Related business
Manufacturer
Unknown
Mission
Spacecraft
Bus & Motor
Unknown
Mass
Unknown
Launch date (UTC)
1993-06-16 (33 years ago)
Launch vehicle
Unknown
Launch site
Plesetsk Missile And Space Complex (PKMTR)
Object type
Payload
Rocket body
Debris
Shape & HBR
Unknown shape, 0.1 m
Radar Cross Section
Small (<0.1 m²)

Expand to show TLE details & history
Last TLE update: 4 days ago

TLE from 4 days ago
0 COSMOS 2251 DEB
1 37132U 93036BHE 25349.39786770  .00004336  00000-0  59917-3 0  9997
2 37132  74.0031 228.8126 0039960  24.0962 336.2070 14.77873409624555
Epoch: 2025-12-15T09:32Z
TLE epoch observation values (Epoch: 2025-12-15T09:32:55.769Z)
Latitude
-0.00006°
Longitude
1.2832°
Altitude
613.072 km
Speed
7.567 km/s
True Right ascension
15h 15m 15s
True Declination
0° 00' 00"
Sunlit
Object was in daylight at epoch
Visualization orbit readout
Latitude
Unknown
Longitude
Unknown
Altitude
Unknown
Speed
Unknown
Apparent Right ascension
Unknown
Apparent Declination
Unknown
Sunlit
N/A
Visualization observer readout
Local Sidereal Time
02:17:24
Azimuth
Unknown
Elevation
Unknown
Doppler factor
Unknown
Orbital elements
Apogee altitude
661.645 km
Perigee altitude
605.607 km
Semi-major axis
7,011.763 km
Eccentricity
0.004
Inclination
74.0031°
RAAN
228.8126°
Arg. of periapsis
24.0962°
True anomaly
336.02142°
Mean anomaly
336.207°
Eccentric anomaly
336.11429°
Mean motion
3.6966 °/min
Orbital period
97.39 mins
BSTAR
0.00059917

Documentation

Showing up to 5 results
|